GEFSCGP_850_meantemp_282.txt.gz
Temperature
6 4 4 5 5 6 6 6 7 7 8 8 8 8 8 8 9 8 9 9 9 10 10 10 10 11 11 11 11 11 11 11 11 11 11 11 11 11 11 11 12 12 12 11
4 4 5 6 6 6 6 6 6 7 8 8 7 7 7 8 8 8 9 9 9 9 9 10 10 10 10 10 10 11 10 11 11 11 11 11 11 11 11 11 11 11 11 11
4 5 6 6 6 6 6 6 6 6 7 7 7 7 7 8 8 8 8 9 9 9 9 9 9 10 10 10 10 10 10 10 10 10 10 10 10 10 10 10 10 10 11 11
4 5 6 6 6 5 6 7 7 7 6 6 7 6 7 7 7 8 8 8 8 9 9 9 9 9 10 10 10 10 10 10 10 10 10 10 10 10 10 10 10 10 10 10
4 5 5 5 6 6 6 7 7 6 6 5 6 6 6 7 7 7 7 8 8 9 9 9 9 9 10 10 10 10 10 10 10 10 10 10 10 10 10 9 9 10 10 10
4 5 5 5 6 6 6 6 6 5 4 5 6 6 6 6 7 7 7 7 8 8 9 9 9 9 9 9 9 9 9 9 9 9 9 9 9 9 9 9 9 9 9 9
4 5 5 6 5 5 5 4 4 4 4 5 6 6 6 7 7 7 7 7 8 8 8 8 9 9 9 9 9 9 9 9 9 9 9 9 9 9 9 9 8 8 9 9
3 4 4 5 5 4 4 4 4 5 5 5 5 6 6 6 7 7 7 7 7 8 8 8 8 8 8 8 9 9 9 9 8 9 9 9 9 8 8 8 8 8 8 8
3 3 4 5 5 5 4 4 4 4 4 4 5 5 5 6 6 6 6 6 7 7 8 8 8 8 8 8 8 8 8 8 8 8 8 8 8 8 8 8 8 8 8 8
3 3 4 4 5 5 4 4 3 3 4 5 5 5 5 5 5 5 5 5 6 7 7 7 7 8 8 8 8 8 8 8 8 8 8 8 8 8 7 7 7 7 7 7
2 2 3 3 3 3 3 3 3 2 3 4 5 5 5 5 5 5 4 5 6 6 7 7 7 7 7 7 7 8 8 8 8 8 8 7 7 7 7 7 7 6 7 6
2 1 2 2 3 3 3 3 2 3 2 2 3 5 5 4 4 5 5 5 5 6 6 6 6 7 7 7 7 7 7 7 7 7 7 7 7 7 6 6 6 6 6 6
2 1 2 3 3 2 2 2 2 1 1 1 2 4 5 4 4 4 4 5 5 5 5 5 6 6 6 6 7 7 7 7 7 7 6 6 6 6 6 6 6 5 5 5
2 0 2 3 3 2 2 2 2 2 2 2 2 3 4 4 3 4 4 4 4 4 5 5 5 5 6 6 6 6 6 6 6 6 6 6 6 5 5 5 5 5 5 5
1 0 -0 1 1 2 2 2 2 2 2 2 3 3 3 3 3 4 4 4 4 4 4 4 4 4 5 5 5 5 5 6 5 5 5 5 5 5 5 4 4 4 4 4
-1 -0 -0 1 1 2 2 2 2 2 2 1 2 2 2 3 3 3 3 3 3 3 3 4 4 4 4 5 5 5 5 5 5 5 4 4 4 4 4 4 4 4 4 4
-2 -1 -0 1 0 1 2 2 1 1 1 1 2 2 2 2 2 2 3 3 3 3 3 3 3 4 4 4 4 4 4 4 4 4 4 4 4 3 3 3 3 3 3 3
-2 -2 -1 -1 0 2 3 1 1 1 1 0 1 1 1 2 2 3 3 3 3 3 3 3 3 3 3 3 3 4 4 4 3 3 3 3 3 3 3 3 3 3 3 3
-1 -1 -2 -1 -1 0 2 1 0 1 1 0 0 0 1 2 1 2 2 2 3 3 3 3 3 3 3 3 3 3 3 3 3 3 3 2 2 2 2 2 2 2 2 2
-2 -2 -2 -2 -0 1 2 1 1 1 1 0 -0 -0 0 1 0 1 2 2 2 2 2 2 2 2 2 2 2 2 2 2 2 2 2 2 2 2 2 2 2 1 1 1
-2 -3 -2 -2 -1 -0 0 0 1 2 2 1 1 1 0 -0 1 2 2 2 2 2 2 2 2 1 1 2 2 2 2 2 2 2 1 1 1 1 1 1 1 1 1 1
-2 -3 -3 -3 -2 -0 -0 -1 -0 1 1 1 1 1 1 1 1 1 1 1 1 1 1 1 1 1 1 1 1 1 1 1 1 1 1 1 1 0 0 0 0 0 -0 -0
-3 -2 -2 -2 -0 -0 -0 0 1 1 1 1 1 1 0 0 0 0 0 1 1 1 1 0 0 1 1 0 0 1 1 0 0 1 0 0 0 -0 -0 -0 -0 -1 -1 -1
-3 -3 -3 -3 -2 -1 -1 0 0 1 1 1 1 0 0 0 -0 -0 -0 -0 -0 -0 -0 -0 -0 -0 0 0 -0 -0 -0 -0 -0 -0 -0 -0 -1 -1 -1 -1 -1 -1 -1 -1
-2 -3 -3 -3 -2 -2 -0 0 1 0 0 0 0 0 -0 -0 -0 -1 -1 -1 -1 -1 -1 -1 -1 -1 -1 -1 -1 -1 -1 -1 -1 -1 -1 -1 -1 -1 -1 -1 -1 -1 -1 -2
-4 -3 -3 -1 -1 -1 0 1 1 0 0 -0 -0 -0 -1 -1 -1 -1 -1 -1 -1 -1 -1 -1 -1 -1 -1 -1 -1 -1 -2 -2 -1 -1 -1 -1 -1 -2 -2 -2 -2 -2 -2 -2

GEFSCGP_850_meantemp_288.txt.gz
Temperature
5 4 4 4 4 5 4 4 5 5 6 6 5 6 6 7 7 7 7 8 8 9 9 9 10 10 10 10 10 10 11 11 11 10 11 11 11 11 11 11 11 11 11 11
4 4 4 5 5 5 5 5 4 5 6 6 5 5 6 6 6 7 7 8 8 9 9 9 10 10 10 10 10 10 10 10 10 10 10 10 10 10 10 10 10 10 10 10
4 4 5 5 5 5 5 4 4 5 5 5 5 5 6 6 7 7 7 8 8 8 9 9 9 9 9 10 10 10 10 10 10 10 10 10 10 10 10 10 10 10 10 10
3 4 5 5 4 5 5 5 5 5 4 4 5 5 6 6 6 6 7 7 8 8 8 9 9 9 9 9 9 9 9 10 9 9 9 9 9 9 9 9 9 10 10 9
3 4 4 4 4 5 4 5 5 5 4 4 4 4 5 5 6 6 6 7 7 8 8 8 9 9 9 9 9 9 9 9 9 9 9 9 9 9 9 9 9 9 9 9
3 4 4 4 5 5 4 4 4 3 3 4 4 4 5 5 6 6 6 6 7 7 8 8 8 8 8 8 9 9 9 9 9 9 9 9 9 9 9 9 9 9 9 9
3 4 4 4 4 4 4 3 3 3 3 4 4 4 5 6 5 6 6 6 7 7 7 7 7 8 8 8 8 8 8 8 8 8 8 8 8 8 8 8 8 8 8 8
3 3 3 3 4 3 3 3 3 4 3 3 3 4 5 5 5 6 6 6 6 7 7 7 7 7 7 7 8 8 8 8 8 8 8 8 8 8 8 8 8 8 8 8
3 3 3 3 4 4 3 2 3 2 2 3 3 3 4 5 4 5 5 5 6 6 6 7 7 7 7 7 7 8 8 8 8 8 8 8 8 8 8 8 8 8 8 7
2 2 3 3 3 3 3 2 1 2 3 4 4 4 4 4 4 4 4 5 5 6 6 6 6 7 7 7 7 7 7 7 7 7 7 7 7 7 7 7 7 7 7 7
2 1 2 2 2 2 2 2 2 1 2 3 3 5 4 4 4 4 4 5 5 5 5 6 6 6 6 7 7 7 7 7 7 7 7 7 7 7 7 7 7 7 7 6
1 1 1 2 2 2 2 2 1 2 2 1 2 4 4 3 4 4 4 5 5 5 5 5 5 5 6 6 6 6 6 6 6 6 6 6 7 7 6 6 6 6 6 6
1 1 2 2 2 1 1 1 1 1 1 0 2 4 4 3 3 4 4 4 4 4 5 5 5 5 5 6 6 6 6 6 6 6 6 6 6 6 6 6 6 6 6 5
1 -0 1 3 3 1 1 1 0 1 1 1 1 3 4 3 3 3 3 4 4 4 4 4 4 4 5 5 5 5 5 5 5 5 5 6 6 6 5 5 5 5 5 5
0 -0 -1 -0 0 1 1 1 1 1 1 2 2 1 3 2 2 2 3 3 3 3 3 4 4 4 4 4 5 5 5 5 5 5 5 5 5 5 5 5 5 5 4 4
-2 -1 -1 -0 0 0 0 1 1 1 1 1 1 1 2 1 1 1 2 2 2 2 3 3 3 3 3 4 4 4 4 4 4 4 4 4 4 4 4 4 4 4 4 4
-3 -2 -0 0 -0 0 1 1 1 1 0 0 1 2 0 0 0 1 2 2 2 2 2 2 3 3 3 3 3 4 4 4 4 4 4 4 4 4 4 4 3 3 3 3
-3 -2 -2 -1 -0 2 3 1 0 0 0 -1 -0 0 -0 0 1 2 2 2 2 2 2 2 2 2 3 3 3 3 3 3 3 3 3 3 3 3 3 3 3 3 3 3
-2 -2 -2 -2 -0 1 1 0 -1 -0 1 -0 -1 -0 -0 0 0 1 2 2 2 2 2 2 2 2 2 2 3 3 3 3 3 3 3 3 3 3 3 2 2 2 2 2
-3 -3 -3 -2 -0 2 3 0 -0 0 1 0 -1 -1 -1 -1 -0 1 2 2 1 1 1 2 2 2 2 2 2 2 2 2 2 2 2 2 2 2 2 2 2 2 2 1
-3 -3 -3 -2 -2 -0 0 -1 -0 1 2 1 0 -0 -1 -1 0 1 1 1 1 1 1 1 1 1 2 2 1 1 1 1 1 1 1 1 1 1 1 1 1 1 1 1
-3 -3 -3 -3 -2 0 -1 -1 -0 1 1 1 0 1 0 0 1 0 1 1 1 1 1 1 1 1 1 1 1 1 1 1 1 1 1 1 1 1 0 1 0 0 0 0
-3 -2 -3 -2 -0 -1 -1 -0 1 1 0 1 1 1 0 0 -0 -0 -0 -0 -0 -0 0 -0 -0 0 0 0 0 0 0 0 0 0 0 0 0 -0 -0 -0 -0 -0 -0 -1
-4 -4 -4 -4 -3 -2 -1 -0 0 1 1 1 1 0 0 -0 -0 -0 -1 -1 -1 -1 -1 -1 -0 -0 -0 -0 -0 -0 -0 -0 -0 -0 -0 -1 -1 -1 -1 -1 -1 -1 -1 -1
-3 -5 -4 -4 -3 -2 -0 0 1 1 0 0 0 0 0 -0 -0 -1 -1 -1 -1 -1 -1 -1 -1 -1 -1 -1 -1 -1 -1 -1 -1 -1 -1 -1 -1 -1 -1 -1 -1 -1 -1 -1
-5 -4 -4 -2 -1 -2 -0 1 1 0 -0 -0 -0 -0 -0 -1 -1 -1 -1 -1 -2 -2 -1 -1 -1 -1 -1 -1 -1 -1 -1 -1 -1 -1 -1 -1 -1 -1 -2 -2 -2 -2 -2 -2

GEFSCGP_850_meantemp_294.txt.gz
Temperature
7 8 8 8 8 8 8 8 9 9 9 8 9 9 10 10 10 10 10 10 9 9 9 9 9 9 10 10 10 10 10 10 10 10 10 10 10 10 10 11 11 11 11 11
8 7 7 7 7 7 7 8 8 9 8 8 8 9 10 10 10 10 10 9 9 9 8 8 8 9 9 9 9 10 10 10 10 10 10 10 10 10 10 10 10 10 10 10
7 7 7 7 7 7 7 8 8 8 8 8 8 10 11 11 10 9 9 9 9 9 8 8 8 8 8 9 9 9 9 9 9 9 9 9 9 9 9 10 10 10 10 10
7 7 7 7 7 7 8 8 7 7 7 8 8 10 11 10 10 10 9 9 9 8 8 8 8 8 8 8 9 9 9 9 9 9 9 9 9 9 9 9 9 9 9 9
6 6 6 6 7 7 7 7 7 7 7 7 8 8 11 10 10 10 10 9 8 8 8 8 8 8 8 8 8 8 8 8 9 9 9 9 9 9 9 9 9 9 9 9
6 5 6 6 6 6 6 6 7 7 7 7 8 8 10 10 10 10 10 9 8 8 7 7 7 7 8 8 8 8 8 8 8 8 8 8 8 8 8 8 8 8 8 9
6 6 5 5 6 6 6 7 8 8 8 9 8 8 10 10 10 9 9 9 8 7 7 7 7 7 7 7 8 7 7 8 7 7 7 7 8 8 8 8 8 8 8 8
7 7 6 5 6 6 6 7 7 8 9 10 8 8 10 10 9 8 8 8 7 7 7 7 6 6 7 7 7 7 7 7 7 7 7 7 7 7 7 8 8 8 8 8
6 6 5 5 5 6 6 6 6 6 6 7 9 9 10 9 8 8 8 7 7 7 6 6 6 6 6 6 6 7 7 7 7 7 7 7 7 7 7 7 7 7 7 7
5 5 5 5 5 5 6 6 6 6 7 8 9 10 10 9 8 8 7 7 6 6 6 6 6 6 6 6 6 6 6 7 7 7 7 7 7 7 7 6 6 7 7 7
4 4 5 5 5 5 5 5 5 6 6 8 9 10 10 8 8 8 7 6 6 5 5 5 5 5 5 5 6 6 6 6 6 6 6 6 6 6 6 6 6 6 6 6
4 4 5 5 4 4 4 5 5 6 5 6 8 9 8 7 7 7 6 6 5 5 5 5 4 4 5 5 5 5 5 6 6 6 6 5 6 6 6 6 6 6 6 6
3 3 5 6 5 3 3 4 4 4 5 5 7 9 7 7 6 6 5 5 4 4 4 4 4 4 4 4 5 5 5 5 5 5 5 5 5 5 5 5 5 5 5 5
3 3 4 7 6 5 3 3 3 3 5 5 6 8 8 7 6 5 4 4 3 3 4 3 3 3 3 4 4 4 4 5 5 4 5 5 4 5 5 5 5 5 5 5
2 3 2 3 3 3 3 3 3 3 4 5 6 6 7 6 5 4 4 3 3 3 3 3 3 3 3 3 4 4 4 4 4 4 4 4 4 4 4 4 4 4 4 4
1 2 1 2 3 2 2 3 3 3 4 4 5 5 6 5 4 3 3 3 3 3 3 2 2 2 3 3 3 3 4 4 4 4 4 3 4 4 4 3 3 4 4 4
1 0 2 4 3 2 4 4 3 3 3 4 5 6 5 4 3 3 2 2 2 2 2 2 2 2 3 3 3 3 3 3 3 3 3 3 3 3 3 3 3 3 3 3
-1 0 1 3 3 4 6 3 3 3 3 3 4 4 4 3 3 2 2 2 2 2 2 2 2 2 2 2 3 3 3 3 3 3 3 2 2 3 2 3 2 2 2 2
0 0 1 2 3 5 5 3 2 3 4 3 3 3 3 2 2 3 2 2 2 2 2 2 2 2 2 2 2 2 2 2 2 2 2 2 2 2 2 2 2 2 2 2
-1 -1 1 1 3 5 6 3 1 2 4 3 2 2 1 1 3 4 2 2 2 2 1 1 1 1 2 1 1 2 2 1 1 2 2 1 1 1 1 1 2 2 1 1
-1 -1 -0 1 2 5 4 1 1 4 5 2 1 1 0 1 2 2 1 1 1 1 1 1 1 1 1 1 1 1 1 1 1 1 1 1 1 1 1 1 1 1 1 1
0 0 -0 1 2 4 2 1 2 3 1 1 1 0 0 0 1 1 1 1 1 1 1 1 1 1 1 0 0 0 0 0 0 0 0 0 0 0 0 0 0 0 0 0
1 1 2 2 4 2 0 1 1 1 0 0 0 0 -0 -0 -0 -0 -0 -0 -0 -0 0 0 0 0 0 -0 -0 -0 -0 -0 -0 -0 -0 -0 -0 -0 -0 -0 -0 -0 -0 -1
-0 -2 -0 -0 1 0 -1 -0 0 0 0 0 0 -0 -0 -0 -0 -0 -0 -0 -0 -0 -0 -0 -0 -0 -1 -1 -1 -1 -1 -1 -1 -1 -1 -1 -1 -1 -1 -1 -1 -1 -1 -1
1 -1 -1 -0 1 -0 -0 -0 0 0 0 -0 0 -0 -0 -1 -0 -1 -1 -1 -1 -1 -1 -1 -1 -1 -1 -1 -1 -1 -1 -1 -1 -1 -1 -1 -1 -1 -1 -1 -1 -1 -1 -2
-1 -1 0 2 2 1 1 1 0 -0 -0 -0 -0 -0 -1 -1 -1 -1 -1 -1 -1 -1 -1 -1 -1 -2 -2 -2 -2 -2 -1 -1 -2 -2 -2 -2 -2 -2 -2 -2 -2 -2 -2 -2

GEFSCGP_850_meantemp_300.txt.gz
Temperature
9 8 7 8 9 9 10 10 10 10 10 10 10 10 10 11 11 11 11 11 11 11 11 10 10 10 10 10 10 10 10 10 10 10 10 10 10 10 10 10 11 11 11 11
9 8 8 9 9 9 9 9 9 9 10 10 9 9 10 10 11 11 11 11 11 11 10 10 10 10 9 9 9 9 10 10 10 10 10 10 10 10 10 10 10 10 10 10
8 8 9 9 9 9 9 8 8 8 8 9 8 9 10 10 11 11 11 11 11 10 10 10 9 9 9 9 9 9 9 9 9 9 9 9 9 9 9 9 9 10 10 10
8 9 9 8 8 8 8 9 9 8 7 7 8 7 9 10 10 10 10 10 10 10 10 9 9 9 9 8 9 9 9 9 9 9 9 9 9 8 9 9 9 9 9 9
7 8 8 7 8 8 7 8 8 8 7 6 8 7 8 10 10 9 10 10 10 10 9 9 9 9 8 8 8 8 8 8 8 8 8 8 8 8 8 8 8 9 9 9
7 8 8 7 8 8 8 7 7 7 7 6 7 7 8 9 9 9 10 10 9 9 9 9 8 8 8 8 8 8 8 8 8 8 8 8 8 8 8 8 8 8 8 8
7 7 7 7 7 7 7 6 6 6 6 7 8 8 8 9 10 10 9 9 9 9 8 8 8 8 8 7 7 7 7 7 7 7 8 8 8 8 8 8 8 8 8 8
7 7 7 7 7 6 6 7 6 6 6 7 7 7 8 9 10 10 9 9 9 8 8 7 7 7 7 7 7 7 7 7 7 7 7 7 7 7 7 7 7 7 7 8
7 7 7 7 7 7 7 6 7 6 5 5 7 8 8 9 9 9 8 8 8 7 7 7 7 7 7 6 6 6 6 7 7 7 7 7 7 7 7 7 7 7 7 7
6 5 6 6 7 7 7 7 5 5 5 6 8 8 8 8 8 8 8 7 7 7 6 6 6 6 6 6 6 6 6 6 6 6 6 6 6 6 6 6 6 6 6 6
5 4 5 5 5 5 5 5 5 5 5 5 6 7 9 7 7 7 7 7 6 6 6 6 6 6 6 6 6 6 6 6 6 6 6 6 6 6 6 6 6 6 6 6
5 4 4 5 5 5 5 6 5 4 4 5 5 6 8 7 7 7 7 7 6 6 5 5 5 5 5 5 5 5 5 5 5 5 5 5 6 6 6 6 6 5 5 5
4 3 3 5 4 4 4 5 5 4 4 4 4 6 7 7 6 7 6 6 5 5 5 4 4 4 5 5 5 5 5 5 5 5 5 5 5 5 5 5 5 5 5 5
4 2 3 4 5 4 3 4 4 3 3 4 4 5 6 6 5 5 5 5 5 5 4 4 4 4 4 4 4 4 4 4 4 4 4 4 5 5 5 5 5 4 4 4
3 2 2 3 4 4 4 3 3 3 3 3 5 5 6 5 5 5 5 5 5 4 4 4 3 3 4 4 4 3 4 4 4 4 4 4 4 4 4 4 4 4 4 4
1 1 2 2 3 3 3 4 4 3 3 4 4 4 5 5 6 5 5 4 4 4 3 3 3 3 3 3 3 3 3 3 3 3 3 3 3 4 4 4 3 3 3 3
1 0 1 2 3 3 3 3 3 3 4 4 3 4 5 4 4 4 4 4 3 3 3 3 2 2 3 3 3 3 3 3 3 3 3 3 3 3 3 3 3 3 3 3
0 0 1 1 2 2 4 4 4 4 4 4 4 4 4 4 4 4 4 3 3 3 3 2 2 2 2 2 2 2 2 2 2 2 2 2 2 2 2 2 2 2 2 2
1 0 1 1 2 3 4 4 3 3 3 3 3 3 3 4 3 4 4 3 3 2 2 2 2 2 2 2 2 2 2 2 1 2 2 2 2 2 2 2 2 1 1 1
0 -0 -0 1 1 2 4 3 3 3 2 3 2 2 2 2 1 2 3 2 2 2 2 2 2 2 2 2 2 1 1 1 1 1 1 1 1 1 1 1 1 1 1 1
-1 -1 -1 -0 1 2 3 2 3 2 3 2 2 2 2 1 1 2 2 2 2 2 2 2 2 1 1 1 1 1 1 0 0 0 1 1 1 1 1 1 1 0 0 0
-1 -1 -1 -0 0 1 2 1 1 2 2 2 2 2 1 1 1 1 1 1 1 1 1 1 1 1 1 1 1 0 0 0 -0 -0 0 0 0 0 0 0 -0 -0 -0 -0
0 0 0 1 2 2 2 2 2 2 1 1 1 1 1 1 0 0 0 0 0 0 0 0 0 0 0 0 0 -0 -0 -0 -1 -1 -0 -0 -0 -0 -1 -1 -1 -1 -1 -1
1 1 1 0 1 2 2 2 2 2 1 1 1 1 0 0 -0 -0 -0 -0 -0 -0 -0 -0 -0 -0 -0 -0 -0 -1 -1 -1 -1 -1 -1 -1 -1 -1 -1 -1 -1 -1 -1 -2
1 -0 -0 -0 0 2 2 2 1 1 1 1 0 0 0 -0 -0 -1 -1 -1 -1 -1 -1 -1 -1 -1 -1 -1 -1 -1 -1 -1 -2 -2 -2 -2 -2 -2 -2 -2 -2 -2 -2 -2
-0 -1 -1 0 1 0 1 1 1 1 0 0 -0 -0 -1 -1 -1 -1 -1 -1 -1 -1 -1 -1 -1 -1 -1 -1 -1 -1 -2 -2 -2 -2 -2 -2 -2 -2 -2 -2 -2 -2 -2 -2

GEFSCGP_850_meantemp_306.txt.gz
Temperature
7 5 5 5 6 6 6 6 6 7 7 7 6 6 7 8 8 8 8 8 9 9 9 9 9 9 9 9 9 9 10 10 10 10 10 10 10 10 10 10 11 10 10 10
5 5 6 6 6 6 6 6 6 6 7 7 6 6 6 7 7 8 8 8 8 8 9 9 9 9 9 9 9 9 9 9 9 9 10 10 10 10 10 10 10 10 10 10
5 6 7 7 6 6 6 6 6 6 6 6 6 6 6 7 7 8 8 8 8 8 8 8 8 8 8 8 9 9 9 9 9 9 9 9 9 9 9 9 9 9 9 9
5 6 7 6 6 6 6 6 6 6 5 4 5 5 6 6 6 6 7 7 8 8 8 8 8 8 8 8 8 8 9 9 8 8 8 9 9 9 9 9 9 9 9 9
5 6 6 6 6 6 5 6 6 5 5 4 5 4 5 5 6 6 6 7 7 7 7 7 7 7 7 8 8 8 8 8 8 8 8 8 8 8 8 8 8 8 8 8
5 6 6 6 6 6 5 5 4 4 3 4 4 4 5 5 6 6 6 7 7 7 7 7 7 7 7 7 7 7 8 8 8 8 8 8 8 7 8 8 8 8 8 8
5 5 6 6 5 5 5 4 4 4 3 4 4 4 5 5 6 6 6 6 7 7 7 7 7 7 7 7 7 7 7 7 7 7 7 7 7 7 7 7 7 7 7 7
4 5 5 5 5 4 4 4 4 5 4 3 4 4 5 5 6 6 6 6 6 6 6 6 6 6 6 6 6 6 6 6 7 7 7 7 7 7 6 7 7 7 7 7
4 4 4 5 5 5 4 4 4 3 2 3 3 3 4 5 5 5 5 5 6 6 6 6 6 6 6 6 6 6 6 6 6 6 6 6 6 6 6 6 6 6 6 6
3 3 4 4 5 5 4 3 2 3 3 4 4 3 4 5 5 5 4 4 5 5 5 5 5 5 5 5 5 5 6 6 6 6 6 6 6 6 6 6 6 6 6 6
3 3 3 3 3 3 4 3 2 2 2 3 3 4 5 4 4 4 4 5 5 5 5 5 5 5 5 5 5 5 5 5 5 5 5 6 5 5 5 5 6 6 6 6
2 1 1 2 2 3 3 3 2 3 2 1 1 4 5 4 4 4 4 5 5 5 5 5 5 4 5 5 5 5 5 5 5 5 5 5 5 5 5 5 5 5 5 5
2 1 2 3 3 2 2 2 2 1 1 1 2 4 4 3 3 4 4 4 4 4 4 4 4 4 4 4 4 4 4 4 4 4 4 4 4 4 4 4 5 5 5 5
2 0 2 3 3 2 1 2 2 1 1 1 1 3 4 3 3 3 4 4 4 4 4 4 4 4 3 3 4 4 4 4 4 4 4 4 4 4 4 4 4 4 5 5
1 0 -0 0 1 1 1 1 1 1 1 1 2 2 3 3 2 3 3 3 3 3 3 3 3 3 3 3 3 3 3 3 3 3 3 3 3 3 4 4 4 4 4 4
-1 -0 -1 0 1 1 1 1 1 1 2 1 2 2 3 3 3 3 3 3 2 3 3 2 2 2 2 2 2 3 3 3 3 3 3 3 3 3 3 3 4 4 4 4
-2 -1 -0 -0 -0 0 1 1 1 1 1 1 2 2 2 1 1 2 2 2 2 2 2 2 2 2 2 2 2 2 3 3 3 3 3 3 3 3 3 3 3 3 3 3
-2 -2 -2 -1 -1 1 3 2 1 1 1 1 1 1 1 2 2 3 3 3 2 2 2 2 2 2 2 2 2 2 2 2 2 2 2 2 2 2 2 2 2 2 2 2
-2 -2 -2 -2 -1 -0 2 2 1 1 1 1 1 1 1 1 1 2 3 3 3 2 2 2 2 2 2 1 1 1 2 2 2 2 2 2 2 2 2 2 2 2 2 2
-2 -2 -2 -2 -0 1 3 1 1 1 1 1 0 0 0 0 -0 1 2 2 2 2 2 1 1 1 1 1 1 1 1 1 1 1 1 1 1 1 1 1 1 1 1 1
-2 -3 -3 -2 -2 -0 1 1 1 1 2 1 1 1 1 -0 0 1 1 1 1 1 1 1 1 1 1 1 1 1 0 0 0 0 0 0 0 0 0 0 0 -0 0 0
-2 -3 -3 -3 -2 0 0 -0 0 1 2 1 1 1 1 1 1 1 1 1 1 1 1 1 0 0 0 0 0 0 -0 -0 -0 -0 -0 -0 -0 -1 -1 -0 -1 -1 -1 -1
-3 -2 -2 -1 0 1 1 1 2 2 1 1 1 1 0 -0 -0 -0 0 0 0 0 -0 -0 -0 0 -0 -0 -0 -0 -0 -1 -1 -1 -1 -1 -1 -1 -1 -1 -1 -1 -1 -1
-3 -3 -3 -3 -2 -1 0 1 1 2 1 1 1 0 0 -0 -0 -0 -1 -0 -1 -1 -1 -1 -0 -0 -1 -1 -1 -1 -1 -1 -1 -1 -1 -1 -2 -2 -2 -2 -2 -2 -2 -2
-2 -3 -3 -2 -2 -1 1 1 1 1 1 0 0 -0 -0 -0 -1 -1 -1 -1 -1 -1 -1 -1 -1 -1 -1 -1 -1 -1 -1 -2 -2 -2 -2 -2 -2 -2 -2 -2 -2 -2 -2 -3
-3 -3 -3 -1 -1 -1 0 1 1 0 0 -0 -0 -0 -1 -1 -1 -1 -1 -1 -1 -1 -2 -2 -2 -2 -2 -2 -2 -2 -2 -2 -2 -2 -2 -3 -3 -3 -3 -3 -3 -3 -3 -3